Location: Drummondville
(45.8830°N, 72.4830°W)
Time: 02:14:38
(UTC-05:00)

Tiangong 1 - Pass Details

Date: 11 November 2017
Orbit: 284 x 308 km, 42.8° (Epoch: 22 November)

Event Time Altitude Azimuth Distance (km) Brightness Sun altitude
Exits shadow 04:39:32 15° 143° (SE) 918 3.4 -21.9°
Drops below altitude 10° 04:40:10 10° 134° (SE) 1,138 4.1 -21.8°
Sets 04:42:16 0° 121° (ESE) 1,963 5.7 -21.4°
